Regional Weather Roundup
Issued by NWS

Home | Current Version | Previous Version | Graphics & Text | Print | Product List | Glossary On
Versions: 1 2 3 4 5 6 7 8 9 10 11 12 13 14 15 16 17 18 19 20 21 22 23 24 25 26 27 28 29 30 31 32 33 34 35 36 37 38 39 40 41 42 43 44 45 46 47 48 49 50
000
ASUS43 KMPX 020410
RWRMN
WEATHER ROUNDUP FOR MINNESOTA
NATIONAL WEATHER SERVICE TWIN CITIES/CHANHASSEN MN
1000 PM CST THU DEC 01 2016


NOTE: "FAIR" INDICATES FEW OR NO CLOUDS BELOW 12,000 FEET WITH NO
SIGNIFICANT WEATHER AND/OR OBSTRUCTIONS TO VISIBILITY. N/A MEANS
CURRENT SKY AND/OR WEATHER CONDITIONS ARE NOT AVAILABLE.

MNZ060>063-068>070-020500-
   Twin Cities Metro

CITY           SKY/WX    TMP DP  RH WIND       PRES   REMARKS
TWIN CITIES    CLOUDY    34  24  67 N8        30.00R WCI  27
ST PAUL        CLOUDY    33  24  69 N12       30.01R WCI  24
CRYSTAL        CLOUDY    33  22  63 N9        29.99R WCI  25
BLAINE         CLOUDY    34  25  69 N10       29.99R WCI  26
LAKEVILLE      CLOUDY    34  27  75 N8        29.99R WCI  27
EDEN PRAIRIE   CLOUDY    35  26  69 N5        29.99R WCI  31
SOUTH ST PAUL  CLOUDY    33  24  68 N7        30.00R WCI  27
LAKE ELMO      CLOUDY    32  27  80 NW7       29.99S WCI  26
$$
MNZ001>005-007-008-013>017-022>024-027-028-020500-
   Northwest Minnesota

CITY           SKY/WX    TMP DP  RH WIND       PRES   REMARKS
BEMIDJI        CLOUDY    25  21  86 NW8       30.01R WCI  16
HALLOCK        CLOUDY    28  27  93 N13       30.07R WCI  18
ROSEAU         CLOUDY    27  21  80 NW8       30.05R WCI  18
WARROAD        CLOUDY    23  19  86 NW8       30.05R WCI  14
THIEF RVR FALL CLOUDY    27  22  81 N9        30.06  WCI  18
CROOKSTON      CLOUDY    28  23  80 N9        30.08R WCI  20
FOSSTON        CLOUDY    25  19  80 NW6       30.04R WCI  18
DETROIT LAKES  CLOUDY    28  25  86 N5        30.03R WCI  23
MOORHEAD       CLOUDY    28  23  80 NW10      30.07R WCI  19
PARK RAPIDS    CLOUDY    27  19  72 NW10      30.00R WCI  17
$$
MNZ006-009>011-018-025>026-020500-
   North Central Minnesota

CITY           SKY/WX    TMP DP  RH WIND       PRES   REMARKS
BAUDETTE       CLOUDY    26  21  81 N6        30.01R WCI  19
FLAG ISLAND    CLOUDY    25  19  80 NW10      30.03R WCI  15
INTL FALLS     CLOUDY    26  21  81 N8        29.99R WCI  18
WASKISH        CLOUDY    25  21  86 NW3       30.02R
BIG FORK       CLOUDY    27  21  80 CALM      29.99R
LONGVILLE      CLOUDY    27  21  80 N6        30.00R WCI  20
CRANE LAKE     CLOUDY    25  23  93 NW5       29.99S WCI  19
ORR            CLOUDY    27  21  80 CALM      29.95R
COOK           CLOUDY    27  23  86 CALM      29.97R
$$
MNZ012-019>021-037-020500-
   Northeast Minnesota

CITY           SKY/WX    TMP DP  RH WIND       PRES   REMARKS
DULUTH         CLOUDY    28  22  78 NW10      29.94R WCI  19
ELY            CLOUDY    25  21  86 NW5       29.94S WCI  19
HIBBING        CLOUDY    26  21  81 NW9       29.96R WCI  17
EVELETH        CLOUDY    28  22  80 NW9       29.96S WCI  19
DULUTH HARBOR  CLOUDY    32  23  69 CALM      29.99S
TWO HARBORS    MOCLDY    30  25  80 CALM      29.92S
SILVER BAY     CLOUDY    28  23  80 NW7       29.91F WCI  21
GRAND MARAIS     N/A     29  20  69 N7        29.94R WCI  22
G MARAIS ARPRT CLOUDY    21  16  79 NW16G25   29.86R WCI   7
$$
MNZ029>031-032-039>041-046>048-054>057-064-020500-
   West Central Minnesota

CITY           SKY/WX    TMP DP  RH WIND       PRES   REMARKS
FERGUS FALLS   CLOUDY    28  23  80 N6        30.07S WCI  22
WHEATON        CLOUDY   N/A N/A N/A NW8       30.07R
MORRIS         CLOUDY    30  25  80 N10       30.03R WCI  21
ALEXANDRIA     CLOUDY    30  24  78 N8        30.01R WCI  22
ELBOW LAKE     CLOUDY    29  24  84 NW9       30.04R WCI  20
WADENA         CLOUDY    27  21  80 NW10      30.00S WCI  17
GLENWOOD       CLOUDY    28  25  86 N7        30.01R WCI  21
APPLETON       CLOUDY    30  27  86 N7        30.04S WCI  23
BENSON         CLOUDY    30  25  80 N8        30.03S WCI  23
ORTONVILLE     MIX PCPN  30  27  86 NW9       30.04S WCI  22
MADISON        CLOUDY    34  32  93 N8        30.05S WCI  27
WILLMAR        CLOUDY    32  28  86 NW7       30.03S WCI  26
$$
MNZ033>034-036-042>043-049>051-058-059-020500-
   Central Minnesota

CITY           SKY/WX    TMP DP  RH WIND       PRES   REMARKS
ST CLOUD       CLOUDY    31  24  75 N9        30.00R WCI  23
PAYNESVILLE    CLOUDY    31  25  77 N6        30.02R WCI  25
AITKIN         CLOUDY    30  21  69 NW5       29.98S WCI  25
PINE RIVER     CLOUDY    28  21  74 N9        30.03R WCI  20
BRAINERD       CLOUDY    29  22  75 N8        30.00R WCI  21
STAPLES        CLOUDY    27  21  80 N6        30.00S WCI  20
LONG PRAIRIE   CLOUDY    30  23  74 NW7       30.00S WCI  23
LITTLE FALLS   CLOUDY    30  23  74 N3        30.00S
LITCHFIELD     CLOUDY    34  27  75 N9        30.01S WCI  26
BUFFALO        CLOUDY    33  25  72 NW8       30.01R WCI  25
MAPLE LAKE     CLOUDY    33  27  79 N8        30.02R WCI  26
$$
MNZ037-044-045-052-053-020500-
   East Central Minnesota

CITY           SKY/WX    TMP DP  RH WIND       PRES   REMARKS
PRINCETON      CLOUDY    32  25  74 NW5       30.00R WCI  27
MORA           MOCLDY    32  23  69 N7        30.01R WCI  26
CAMBRIDGE      CLOUDY    34  23  64 NW5       29.98R WCI  30
RUSH CITY      CLOUDY    30  23  74 NW7       30.00R WCI  23
MOOSE LAKE     CLOUDY    30  21  69 N7        29.97S WCI  23
HINCKLEY       CLOUDY    32  25  74 N9        29.99R WCI  24
CLOQUET        CLOUDY    28  19  69 NW7       29.96S WCI  21
MCGREGOR       CLOUDY    30  23  74 NW7       29.99S WCI  23
$$
MNZ071>073-080-081-089-090-097-098-020500-
   Southwest Minnesota

CITY           SKY/WX    TMP DP  RH WIND       PRES   REMARKS
MONTEVIDEO     CLOUDY    30  30 100 N8          N/A  WCI  23
GRANITE FALLS  CLOUDY    33  28  84 NW9       30.05S WCI  25
CANBY          CLOUDY    32  28  86 CALM      30.05S
MARSHALL       FLURRIES  31  28  89 N12       30.04R WCI  22
REDWOOD FALLS  CLOUDY    32  25  75 NW7G17    30.03R WCI  26
OLIVIA         CLOUDY    32  28  86 NW10G16   30.02R WCI  24
PIPESTONE      CLOUDY    32  28  86 N3        30.01R
WINDOM         CLOUDY    32  28  86 CALM      30.01S
WORTHINGTON    CLOUDY    32  29  88 N7        30.02R WCI  26
JACKSON        CLOUDY    32  30  93 N8        30.01S WCI  25
TRACY          CLOUDY    32  29  88 N9        30.03S WCI  24
SLAYTON        CLOUDY    30  28  91 N8        30.02R WCI  23
$$
MNZ065>067-074>077-082>085-091>093-020500-
   South Central Minnesota

CITY           SKY/WX    TMP DP  RH WIND       PRES   REMARKS
MANKATO        LGT RAIN  33  31  92 NW9       30.01R WCI  25
NEW ULM        CLOUDY    34  28  80 NW10      30.02R WCI  26
ST JAMES       CLOUDY    34  30  86 W8        30.03R WCI  27
FAIRMONT       CLOUDY    33  29  85 NW9       30.02S WCI  25
GLENCOE        CLOUDY    34  30  83 NW6       30.00R WCI  29
FARIBAULT      CLOUDY    36  28  75 NW6       29.99R
OWATONNA       CLOUDY    34  32  93 W7        29.99R WCI  28
WASECA         CLOUDY    34  32  93 W12       30.01R WCI  25
ALBERT LEA     CLOUDY    37  36  93 W6        29.99S
$$
MNZ078>079-086>088-094>096-020500-
   Southeast Minnesota

CITY           SKY/WX    TMP DP  RH WIND       PRES   REMARKS
ROCHESTER      CLOUDY    34  31  88 W9        29.97R WCI  27
RED WING       CLOUDY    36  25  64 NW7       29.98R
STANTON        CLOUDY    35  28  75 NW7       29.98R WCI  29
DODGE CENTER   CLOUDY    34  30  86 W7        29.97R WCI  28
WINONA         CLOUDY    36  32  87 W3        29.97S
AUSTIN         MIX PCPN  34  30  86 W7        29.98S WCI  28
PRESTON        CLOUDY    33  31  93 W10       29.97R WCI  25
$$
ABBREVIATIONS USED IN REMARKS
   TC - TEMPERATURES IN CELSIUS
  WCI - WIND CHILL INDEX
   HX - HEAT INDEX
  VSB - VISIBILITY
$$




USA.gov is the U.S. government's official web portal to all federal, state and local government web resources and services.